Flag for Germany Weather past 2 weeks in Mülheim / Ruhr, North Rhine-Westphalia, Germany

Now
55 °F

Partly sunny.


Feels Like: 53 °F
Forecast: 49 / 68 °F
Wind: 9 mph from Southwest

Location: Duesseldorf

Current Time: Jul 30, 2015 at 8:27:30 AM

Latest Report: Jul 30, 2015 at 7:50 AM


Visibility: N/A

Pressure: 29.95 "Hg

Humidity: 82%

Dew point: 50 °F

Location of Mülheim / RuhrLocation

Historic Weather in Mülheim / Ruhr — Graph

°F

Mülheim / Ruhr temperature yesterday

Maximum temperature yesterday: 64 °F (at 12:20 PM)
Minimum temperature yesterday: 54 °F (at 12:50 PM)
Average temperature yesterday: 59 °F

Past Weeks' High & Low Weather Summary

 TemperatureHumidityPressure
High91 °F (Jul 17, 4:50 PM)100% (Jul 16, 4:50 AM)30.12 "Hg (Jul 16, 4:50 AM)
Low48 °F (Jul 26, 5:50 AM)26% (Jul 17, 4:50 PM)29.50 "Hg (Jul 25, 6:50 AM)
Average67 °F71%29.88 "Hg
* Reported Jul 15 7:20 AM — Jul 30 7:20 AM, Mülheim / Ruhr, Weather by CustomWeather, © 2015

Note: Actual official high and low records may vary slightly from our data, if they occured in-between our weather recording intervals... More about our weather records

Advertising

Mülheim / Ruhr weather history for previous 24 hours

 ConditionsComfort  
Time TempWeatherWind HumidityBarometerVisibility
7:20 AM
Thu, Jul 30
54 °FBroken clouds.9 mph88%29.95 "HgN/A
6:50 AM54 °FPassing clouds.7 mph88%29.95 "HgN/A
6:20 AM52 °FPartly cloudy.6 mph88%29.95 "HgN/A
5:50 AM52 °FPassing clouds.6 mph88%29.95 "HgN/A
5:20 AM52 °FPassing clouds.7 mph88%29.92 "HgN/A
4:50 AM52 °FPassing clouds.7 mph88%29.92 "HgN/A
4:20 AM52 °FPassing clouds.6 mph88%29.92 "HgN/A
3:50 AM50 °FPassing clouds.6 mph88%29.92 "HgN/A
3:20 AM50 °FPassing clouds.3 mph88%29.92 "HgN/A
2:50 AM50 °FClear.6 mph88%29.92 "Hg10 mi
2:20 AM50 °FClear.7 mph88%29.92 "Hg10 mi
1:50 AM52 °FClear.5 mph88%29.92 "Hg10 mi
1:20 AM52 °FClear.7 mph88%29.92 "Hg10 mi
12:50 AM54 °FClear.8 mph82%29.92 "Hg10 mi
12:20 AM54 °FClear.8 mph82%29.92 "Hg10 mi
11:50 PM
Wed, Jul 29
55 °FClear.7 mph82%29.92 "Hg10 mi
11:20 PM55 °FClear.7 mph82%29.92 "Hg10 mi
10:50 PM57 °FClear.7 mph77%29.92 "Hg10 mi
10:20 PM57 °FScattered clouds.7 mph77%29.89 "HgN/A
9:50 PM57 °FPartly sunny.8 mph77%29.89 "HgN/A
9:20 PM59 °FScattered clouds.13 mph68%29.89 "HgN/A
8:50 PM59 °FPartly sunny.13 mph68%29.89 "HgN/A
8:20 PM59 °FSprinkles. Partly sunny.18 mph63%29.86 "HgN/A
7:50 PM63 °FScattered showers. Scattered clouds.16 mph56%29.86 "HgN/A
7:20 PM63 °FScattered showers. Scattered clouds.14 mph56%29.83 "HgN/A
6:50 PM64 °FScattered showers. Scattered clouds.23 mph46%29.83 "HgN/A
6:20 PM64 °FPassing clouds.20 mph46%29.83 "HgN/A
5:50 PM64 °FPassing clouds.20 mph49%29.80 "HgN/A
5:20 PM64 °FPassing clouds.21 mph52%29.80 "HgN/A
4:50 PM64 °FPassing clouds.8 mph68%29.80 "HgN/A
4:20 PM59 °FThundershowers. Scattered clouds.7 mph72%29.80 "HgN/A
3:50 PM63 °FScattered showers. Scattered clouds.9 mph59%29.80 "HgN/A
3:20 PM61 °FScattered showers. Scattered clouds.12 mph63%29.80 "HgN/A
2:50 PM57 °FScattered showers. Scattered clouds.15 mph72%29.80 "HgN/A
2:20 PM57 °FSprinkles. Partly sunny.16 mph72%29.80 "HgN/A
1:50 PM61 °FScattered showers. Scattered clouds.16 mph63%29.77 "HgN/A
1:20 PM59 °FScattered clouds.12 mph77%29.77 "HgN/A
12:50 PM54 °FSprinkles. Scattered clouds.14 mph82%29.77 "HgN/A
12:20 PM64 °FScattered clouds.16 mph49%29.74 "HgN/A
11:50 AM61 °FScattered clouds.20 mph59%29.74 "HgN/A
11:20 AM61 °FScattered clouds.14 mph63%29.74 "HgN/A
10:50 AM61 °FScattered clouds.13 mph68%29.74 "HgN/A
10:20 AM61 °FScattered showers. Scattered clouds.15 mph72%29.77 "HgN/A
9:50 AM59 °FSprinkles. Partly sunny.15 mph72%29.77 "HgN/A
9:20 AM59 °FPartly sunny.13 mph77%29.77 "HgN/A
8:50 AM57 °FScattered clouds.14 mph77%29.77 "HgN/A
8:20 AM57 °FPartly sunny.13 mph82%29.77 "HgN/A
Weather by CustomWeather, © 2015

See weather overviewHow to use our weather pages